Location: Chenango Forks
(42.2242°N, 75.8278°W)
Time: 12:00:02
(UTC-04:00)

Daily predictions for brighter satellites

Satellite Brightness Start Highest point End
(mag) Time Altitude Azimuth Time Altitude Azimuth Time Altitude Azimuth
CZ-3C R/B 4.4 20:25:21 10° SW 20:55:48 22° SSW 21:04:14 10° SE
Meteor 2-3 Rocket 3.8 20:51:21 10° S 20:57:00 90° NE 21:02:37 10° N
FENGYUN 3A 4.2 20:52:46 10° S 20:58:07 65° WSW 21:03:30 10° NNW
Cosmos 1356 Rocket 3.5 20:55:07 10° S 20:59:15 62° E 21:03:31 10° NNE
Cosmos 1733 Rocket 3.3 20:55:08 10° SSE 20:59:22 48° E 21:03:37 10° NNE
Cosmos 2263 Rocket 3.4 20:54:36 10° SW 21:00:05 49° WNW 21:05:35 10° NNE
SL-8 R/B 3.7 20:57:17 10° SW 21:02:05 72° SSE 21:06:53 10° ENE
Cosmos 407 Rocket 4.2 20:57:50 10° N 21:02:48 40° ENE 21:07:47 10° SE
YAOGAN 11 4.2 20:58:21 10° SSE 21:02:51 79° ENE 21:07:26 10° N
Meteor 1-27 Rocket 4.4 21:02:02 10° N 21:07:09 36° ENE 21:12:11 10° SE
PSLV R/B 3.8 21:04:06 10° W 21:07:25 46° SSW 21:10:47 10° ESE
Meteor 2-10 Rocket 3.8 21:03:31 10° N 21:09:23 86° E 21:15:04 10° S
ERS-1 Rocket 3.0 21:04:30 10° SSE 21:09:31 76° ENE 21:14:34 10° N
Cosmos 1452 Rocket 4.4 21:06:07 10° SSE 21:10:32 28° E 21:14:58 10° NE
Cosmos 1340 Rocket 3.5 21:08:25 10° SSW 21:12:20 59° WNW 21:16:21 10° N
Cosmos 909 Rocket 4.3 21:07:09 10° SSW 21:13:37 82° ESE 21:21:29 10° NNE
Abrixas rocket 4.3 21:12:15 10° W 21:14:51 20° SW 21:17:26 10° S
Cosmos 1190 Rocket 4.1 21:10:19 10° NNW 21:15:30 63° ENE 21:20:38 10° SSE
CZ-4 DEB 3.5 21:13:06 10° S 21:16:13 54° W 21:19:20 10° NNW
Cosmos 1782 2.9 21:15:17 10° N 21:19:17 61° E 21:23:16 10° SSE
Atlas Centaur 2 3.1 21:20:33 10° SSW 21:22:16 13° S 21:23:48 11° SSE
USA 234 4.4 21:18:06 10° E 21:22:23 18° ESE 21:26:40 10° SSE
USA 186 4.1 21:20:34 10° SSW 21:23:05 23° W 21:25:46 10° NW
Cosmos 1939 Rocket 2.7 21:20:25 10° SSE 21:24:16 79° ENE 21:28:11 10° N
Cosmos 1606 3.3 21:21:23 10° N 21:25:08 41° ENE 21:28:25 13° SSE
H-2A R/B 2.1 21:21:40 10° SSE 21:25:59 70° ENE 21:30:13 10° N
Cosmos 2074 Rocket 4.2 21:22:59 10° S 21:29:15 78° W 21:35:33 10° N
CZ-4B R/B 4.5 21:25:47 10° NE 21:29:50 25° E 21:33:05 13° SE
Cosmos 1892 3.7 21:28:42 10° SSW 21:32:25 49° W 21:36:11 10° N
Cosmos 1610 Rocket 4.5 21:32:05 10° S 21:38:14 86° E 21:44:29 10° N
Nadezhda 3 Rocket 4.1 21:37:45 10° N 21:44:06 69° E 21:50:04 12° SSE
Cosmos 676 Rocket 4.0 21:40:29 10° NNW 21:45:41 71° ENE 21:49:42 17° SSE
Cosmos 1184 Rocket 3.6 21:45:10 21° SE 21:46:47 33° E 21:49:50 10° NNE
Okean 2 Rocket 3.8 21:45:32 17° SSE 21:48:19 35° E 21:52:21 10° NNE
Cosmos 2056 Rocket 4.2 21:44:10 10° SW 21:49:14 56° WNW 21:54:18 10° NNE
CENTAUR R/B 3.9 21:42:11 10° NW 21:49:41 48° WSW 21:57:31 10° S
Cosmos 1174 3.2 21:47:45 10° NNW 21:51:02 66° ENE 21:52:28 28° SE
MetOp-B 4.1 21:46:46 15° SSE 21:51:19 73° ENE 21:56:40 10° N
Cosmos 1954 Rocket 4.1 21:46:45 10° NNW 21:51:55 62° ENE 21:55:30 20° SE
Cosmos 1674 Rocket 4.3 21:49:38 10° NNW 21:53:59 53° W 21:58:17 10° S
Sich 1 Rocket 3.9 21:50:25 10° SSW 21:54:59 73° W 21:59:35 10° N
CZ-4 SHROUD 3.1 21:59:35 26° S 22:01:13 86° WSW 22:04:19 10° NNW
Intercosmos 25 3.6 22:02:34 27° SE 22:03:55 39° E 22:06:57 10° NNE
COSMOS 2406 4.4 21:58:53 10° NW 22:04:07 37° WSW 22:09:19 10° S
ARGOS 3.3 22:01:08 21° SE 22:04:35 59° ENE 22:09:52 10° N
Cosmos 2341 Rocket 4.0 21:58:19 10° S 22:04:37 78° E 22:10:54 10° N
ATLAS 5 CENTAUR R/B 3.5 21:59:52 10° NW 22:05:26 38° WSW 22:10:53 12° S
SL-27 R/B 4.2 22:02:59 10° NW 22:06:12 29° WSW 22:09:10 11° SSW
COS B Rocket 3.7 22:02:40 10° N 22:06:50 64° W 22:10:09 13° SSW
Cosmos 1782 Rocket 3.5 22:04:17 16° S 22:07:47 72° E 22:12:16 10° NNE
Okean 3 3.4 22:08:11 10° N 22:12:30 88° W 22:14:59 24° S
Meteor 2-13 Rocket 4.4 22:07:54 14° S 22:13:08 67° E 22:19:15 10° NNE
PSLV R/B 3.9 22:12:35 25° SSW 22:13:59 47° W 22:16:51 10° NNW
COSMOS 2487 2.4 22:10:56 10° NNW 22:14:34 83° ENE 22:15:53 37° SSE
DNEPR-1 R/B 4.2 22:09:36 10° NNW 22:15:02 54° NE 22:17:21 28° ESE
Timation 2 Rocket 4.0 22:10:33 10° NNW 22:16:30 61° ENE 22:19:46 27° SE
APEX 3.9 22:17:23 35° SE 22:18:15 39° ESE 22:22:45 10° NE
Cosmos 1238 Rocket 2.8 22:15:16 10° NNW 22:18:23 59° W 22:20:11 25° SSW
Cosmos 2278 Rocket 2.1 22:14:00 10° SSW 22:19:40 83° ESE 22:25:23 10° NNE
Cosmos 1833 Rocket 3.7 22:16:53 10° N 22:21:56 33° NE 22:24:36 22° ESE
SPOT 5 3.9 22:17:33 13° S 22:22:06 49° W 22:27:18 10° NNW
Cosmos 1023 Rocket 4.4 22:17:53 10° NNW 22:23:00 78° ENE 22:25:29 31° SSE
Cosmos 1975 Rocket 3.0 22:18:43 10° N 22:23:04 82° W 22:25:16 28° S
Cosmos 1844 4.2 22:17:41 10° SW 22:23:23 63° WNW 22:29:10 10° NNE
Cosmos 1825 2.9 22:21:19 12° SSW 22:24:40 52° W 22:28:25 10° N
CARTOSAT-1 4.4 22:24:39 30° ESE 22:25:51 37° ENE 22:29:49 10° N
SL-8 Rocket 4.0 22:21:27 20° S 22:25:53 68° E 22:32:05 10° NNE
ISS -3.3 22:23:09 10° SW 22:25:57 54° S 22:25:57 54° S
Terra 2.5 22:25:43 30° ESE 22:27:21 39° ENE 22:31:45 10° N
Cosmos 1844 Rocket 3.9 22:22:50 10° SW 22:28:13 43° WNW 22:33:35 10° NNE
Cosmos 1862 4.5 22:24:35 10° SSW 22:28:27 42° WNW 22:32:22 10° N
YAOGAN 6 3.6 22:29:22 23° SSW 22:31:05 39° W 22:34:25 10° NNW
Cosmos 1408 3.8 22:29:47 12° SSW 22:32:55 40° WNW 22:36:24 10° N
Cosmos 1536 Rocket 4.1 22:31:32 10° N 22:35:49 43° ENE 22:36:45 38° ESE
Cosmos 1420 Rocket 3.9 22:31:28 15° SSW 22:35:55 86° ESE 22:41:11 10° NNE
H-2A R/B 2.3 22:34:40 34° SE 22:36:53 60° ENE 22:42:08 10° N
ASTEX 1 4.4 22:34:25 10° NNE 22:38:40 28° E 22:39:07 28° E
Cosmos 2082 Rocket 2.5 22:33:24 10° NNW 22:39:00 54° ENE 22:41:15 34° ESE
Cosmos 1812 3.9 22:37:08 10° NNE 22:40:32 28° ENE 22:40:32 28° ENE
USA 245 4.0 22:40:07 31° SW 22:41:02 39° W 22:44:35 10° NNW
Cosmos 1242 Rocket 3.0 22:39:25 10° NNW 22:43:02 58° W 22:43:57 42° SSW
CZ-4C R/B 3.2 22:49:12 62° SSE 22:49:49 89° WSW 22:53:53 10° NNW
Cosmos 614 Rocket 3.8 22:45:49 10° NNW 22:50:57 90° WNW 22:52:31 46° SSE
Cosmos 2084 4.3 22:47:14 10° WSW 22:50:57 45° NW 22:54:39 10° NNE
SPOT 1/Viking Rocket 4.4 22:49:15 23° SSW 22:52:11 45° W 22:57:11 10° NNW
Cosmos 2297 3.6 22:48:46 24° SSW 22:52:20 78° ESE 22:58:05 10° NNE
SL-08 RB Rocket 4.2 22:51:07 33° SSW 22:52:55 56° W 22:57:29 10° NNW
Cosmos 2151 Rocket 3.5 22:52:34 49° S 22:53:45 81° E 22:58:18 10° N
Cosmos 1140 Rocket 4.0 22:51:19 10° NNW 22:56:18 52° WSW 22:58:17 33° SSW
Cosmos 864 Rocket 4.4 22:54:36 33° S 22:57:31 81° E 23:03:41 10° N
Cosmos 2366 rocket 4.0 23:01:48 30° S 23:05:09 84° W 23:11:31 10° N
USA 234 3.1 22:59:31 10° NE 23:06:04 75° SE 23:12:35 10° SW
SAR-Lupe-2 3.9 23:11:18 60° NNE 23:11:18 60° NNE 23:14:25 10° N
Spot 2 4.0 23:11:18 10° NNE 23:15:27 64° E 23:15:27 64° E
Cosmos 1025 Rocket 4.4 23:18:26 10° NNE 23:21:53 27° ENE 23:21:53 27° ENE
Okean 1 Rocket 3.3 23:22:47 57° ENE 23:22:47 57° ENE 23:26:54 10° NNE
Cosmos 1300 Rocket 3.5 23:23:43 69° ENE 23:23:43 69° ENE 23:27:58 10° NNE
Okean 1-7 Rocket 3.8 23:19:21 10° N 23:23:41 56° ENE 23:23:41 56° ENE
BREEZE-M DEB (TANK) 4.1 23:25:06 10° NW 23:27:19 26° NNE 23:31:44 10° ENE
DMSP B5D2-2 4.3 23:22:16 10° N 23:27:27 67° WNW 23:29:15 40° SW
Cosmos 2369 Rocket 3.8 23:31:03 19° E 23:31:03 19° E 23:33:51 10° NE
Okean 1 3.5 23:26:54 10° N 23:30:38 73° NNW 23:30:38 73° NNW
IGS 5A 4.1 23:32:35 45° WSW 23:32:42 45° W 23:36:43 10° NNW
Meteor 1-20 Rocket 4.3 23:33:05 47° SSW 23:34:41 74° W 23:40:15 10° N
Cosmos 1000 Rocket 4.4 23:36:34 10° N 23:42:49 76° E 23:44:01 59° SSE
Cosmos 2239 Rocket 4.4 23:47:42 60° SE 23:48:43 70° E 23:55:01 10° NNE
